Weather History for Ludington, MI

Change the Weather History Date:

Saturday, November 23, 2013

  Actual Average Record
Temperature  
Mean Temperature 26 °F -  
Max Temperature 32 °F 42 °F 62 °F (1999)
Min Temperature 19 °F 29 °F 8 °F (1971)
Degree Days  
Heating Degree Days 39    
Moisture  
Dew Point 10 °F    
Average Humidity 56    
Maximum Humidity 78    
Minimum Humidity 47    
Precipitation  
Precipitation 0.00 in - - ()
Sea Level Pressure  
Sea Level Pressure 30.45 in    
Wind  
Wind Speed 14 mph (NNW)    
Max Wind Speed 23 mph    
Max Gust Speed 34 mph    
Visibility 8 miles    
Events Snow    
Averages and records for this station are not official NWS values.
T = Trace of Precipitation, MM = Missing Value Source: NWS Daily Summary

Daily Weather History Graph

Daily Weather History Graph

Search for Another Location

Airport:

Trip Planner

Search our weather history database for the weather conditions in past years. The results will help you decide how hot, cold, wet, or windy it might be!

Date:

Astronomy

Nov. 23, 2013 Rise Set
Actual Time 7:51 AM EST 5:12 PM EST
Civil Twilight 7:19 AM EST 5:44 PM EST
Nautical Twilight 6:43 AM EST 6:20 PM EST
Astronomical Twilight 6:09 AM EST 6:54 PM EST
Moon 10:45 PM EST (11/23) 12:03 PM EST (11/23)
Length of Visible Light 10h 25m
Length of Day
9h 21m
Waning Gibbous, 70% of the Moon is Illuminated
Nov 23
Waning Gibbous
Nov 25
Last Quarter
Dec 2
New
Dec 9
First Quarter
Dec 17
Full

Hourly Weather History & Observations

Time (EST) Temp. Windchill Dew Point Humidity Pressure Visibility Wind Dir Wind Speed Gust Speed Precip Events Conditions
12:15 AM 33.1 °F 23.9 °F 15.3 °F 48% 30.33 in 10.0 mi WNW 12.7 mph 19.6 mph N/A   Clear
12:35 AM 33.1 °F 23.9 °F 15.1 °F 48% 30.32 in 10.0 mi WNW 12.7 mph 18.4 mph N/A   Clear
12:55 AM 32.0 °F 23.6 °F 14.4 °F 48% 30.32 in 10.0 mi NW 10.4 mph 18.4 mph N/A   Scattered Clouds
1:15 AM 32.0 °F 24.8 °F 15.1 °F 50% 30.32 in 10.0 mi NW 8.1 mph 18.4 mph N/A   Scattered Clouds
1:35 AM 32.0 °F 24.8 °F 15.6 °F 51% 30.32 in 10.0 mi WNW 8.1 mph 23.0 mph N/A   Mostly Cloudy
1:55 AM 31.8 °F 23.9 °F 14.7 °F 49% 30.31 in 10.0 mi NW 9.2 mph 18.4 mph N/A   Overcast
2:15 AM 31.8 °F 23.3 °F 15.1 °F 50% 30.30 in 10.0 mi NW 10.4 mph 17.3 mph N/A   Overcast
2:34 AM 31.6 °F 25.1 °F 15.3 °F 51% 30.30 in 10.0 mi NW 6.9 mph 17.3 mph N/A   Overcast
2:55 AM 30.9 °F 22.2 °F 14.7 °F 51% 30.31 in 10.0 mi NW 10.4 mph 16.1 mph N/A   Overcast
3:15 AM 30.9 °F 22.2 °F 14.7 °F 51% 30.31 in 10.0 mi NW 10.4 mph 20.7 mph N/A   Overcast
3:35 AM 30.9 °F 21.2 °F 14.7 °F 51% 30.31 in 10.0 mi NNW 12.7 mph 20.7 mph N/A   Overcast
3:55 AM 30.9 °F 21.7 °F 16.5 °F 55% 30.31 in 10.0 mi NNW 11.5 mph 18.4 mph N/A   Overcast
4:14 AM 30.9 °F 20.7 °F 15.8 °F 54% 30.31 in 10.0 mi NNW 13.8 mph 24.2 mph N/A   Overcast
4:35 AM 30.9 °F 19.1 °F 21.2 °F 67% 30.32 in 4.0 mi NNW 18.4 mph 27.6 mph N/A Snow Light Snow
4:55 AM 28.4 °F 17.0 °F 20.7 °F 73% 30.32 in 5.0 mi NW 15.0 mph 21.9 mph N/A Snow Light Snow
5:14 AM 28.4 °F 16.6 °F 18.3 °F 66% 30.33 in 10.0 mi North 16.1 mph 34.5 mph N/A Snow Light Snow
5:35 AM 28.4 °F 18.0 °F 15.3 °F 58% 30.34 in 10.0 mi NNW 12.7 mph 26.5 mph N/A   Overcast
5:55 AM 28.4 °F 16.6 °F 13.1 °F 53% 30.35 in 10.0 mi NNW 16.1 mph 24.2 mph N/A   Overcast
6:14 AM 26.6 °F 14.7 °F 12.4 °F 55% 30.36 in 10.0 mi NNW 15.0 mph 26.5 mph N/A   Overcast
6:35 AM 25.7 °F 13.5 °F 13.5 °F 60% 30.37 in 10.0 mi North 15.0 mph 23.0 mph N/A Snow Light Snow
6:55 AM 25.7 °F 12.3 °F 8.8 °F 49% 30.37 in 10.0 mi NNW 18.4 mph 28.8 mph N/A   Overcast
7:14 AM 25.7 °F 12.3 °F 12.9 °F 58% 30.38 in 10.0 mi NNW 18.4 mph 27.6 mph N/A Snow Light Snow
7:35 AM 24.6 °F 12.7 °F 11.7 °F 58% 30.39 in 10.0 mi NNW 13.8 mph 26.5 mph N/A Snow Light Snow
7:55 AM 23.9 °F 10.8 °F 13.6 °F 65% 30.39 in 4.0 mi NNW 16.1 mph 31.1 mph N/A Snow Light Snow
8:14 AM 22.8 °F 10.9 °F 16.9 °F 78% 30.40 in 1.2 mi North 12.7 mph 21.9 mph N/A Snow Light Snow
8:35 AM 23.4 °F 10.6 °F 15.8 °F 73% 30.40 in 2.5 mi North 15.0 mph 19.6 mph N/A Snow Light Snow
8:55 AM 23.4 °F 9.6 °F 12.4 °F 63% 30.41 in 7.0 mi North 17.3 mph 26.5 mph N/A Snow Light Snow
9:14 AM 23.2 °F 9.0 °F 10.4 °F 58% 30.42 in 7.0 mi North 18.4 mph 27.6 mph N/A   Overcast
9:35 AM 23.4 °F 11.1 °F 9.0 °F 54% 30.43 in 10.0 mi North 13.8 mph 26.5 mph N/A   Overcast
9:55 AM 23.4 °F 9.2 °F 12.0 °F 62% 30.44 in 7.0 mi NNW 18.4 mph 28.8 mph N/A   Overcast
10:14 AM 22.1 °F 8.0 °F 13.5 °F 69% 30.45 in 2.0 mi North 17.3 mph 25.3 mph N/A Snow Light Snow
10:35 AM 23.4 °F 9.6 °F 12.0 °F 62% 30.45 in 7.0 mi North 17.3 mph 23.0 mph N/A Snow Light Snow
10:55 AM 23.0 °F 7.2 °F 11.3 °F 61% 30.46 in 7.0 mi NNW 23.0 mph 27.6 mph N/A Snow Light Snow
11:15 AM 23.4 °F 10.6 °F 10.4 °F 58% 30.48 in 10.0 mi NNW 15.0 mph 33.4 mph N/A   Overcast
11:35 AM 23.4 °F 8.1 °F 10.2 °F 57% 30.47 in 10.0 mi NNW 21.9 mph 29.9 mph N/A   Overcast
11:55 AM 22.3 °F 6.6 °F 10.4 °F 60% 30.48 in 5.0 mi NNW 21.9 mph 28.8 mph N/A Snow Light Snow
12:15 PM 22.3 °F 8.7 °F 11.5 °F 63% 30.48 in 4.0 mi NNW 16.1 mph 28.8 mph N/A Snow Light Snow
12:35 PM 22.1 °F 8.0 °F 9.1 °F 58% 30.48 in 10.0 mi NNW 17.3 mph 27.6 mph N/A   Overcast
12:55 PM 22.5 °F 9.4 °F 9.7 °F 58% 30.48 in 7.0 mi NNW 15.0 mph 29.9 mph N/A   Overcast
1:15 PM 22.1 °F 6.4 °F 10.4 °F 61% 30.48 in 7.0 mi NNW 21.9 mph 29.9 mph N/A Snow Light Snow
1:35 PM 21.4 °F 8.5 °F 10.2 °F 62% 30.49 in 4.0 mi NNW 13.8 mph 24.2 mph N/A Snow Light Snow
1:55 PM 20.8 °F 6.4 °F 9.5 °F 62% 30.49 in 5.0 mi North 17.3 mph 28.8 mph N/A Snow Light Snow
2:15 PM 20.8 °F 7.3 °F 9.7 °F 62% 30.50 in 7.0 mi North 15.0 mph 25.3 mph N/A Snow Light Snow
2:35 PM 21.6 °F 7.3 °F 7.3 °F 54% 30.50 in 10.0 mi NNW 17.3 mph 24.2 mph N/A   Overcast
2:55 PM 21.0 °F 7.1 °F 7.0 °F 55% 30.50 in 10.0 mi NNW 16.1 mph 25.3 mph N/A   Overcast
3:15 PM 21.6 °F 8.2 °F 7.7 °F 55% 30.50 in 7.0 mi NNW 15.0 mph 27.6 mph N/A Snow Light Snow
3:35 PM 21.0 °F 6.6 °F 8.6 °F 59% 30.51 in 7.0 mi NNW 17.3 mph 26.5 mph N/A Snow Light Snow
3:55 PM 21.2 °F 8.9 °F 7.7 °F 56% 30.52 in 10.0 mi NNW 12.7 mph 23.0 mph N/A Snow Light Snow
4:15 PM 21.2 °F 8.3 °F 7.3 °F 55% 30.52 in 10.0 mi NNW 13.8 mph 23.0 mph N/A   Overcast
4:35 PM 20.8 °F 9.7 °F 9.3 °F 61% 30.52 in 7.0 mi NNW 10.4 mph 26.5 mph N/A Snow Light Snow
4:55 PM 20.8 °F 7.9 °F 7.2 °F 56% 30.53 in 10.0 mi NNW 13.8 mph 23.0 mph N/A   Overcast
5:15 PM 21.0 °F 9.3 °F 6.4 °F 53% 30.54 in 10.0 mi NNW 11.5 mph 23.0 mph N/A   Overcast
5:35 PM 21.0 °F 8.6 °F 5.2 °F 51% 30.54 in 10.0 mi NNW 12.7 mph 27.6 mph N/A Snow Light Snow
5:55 PM 20.8 °F 5.9 °F 5.9 °F 53% 30.55 in 10.0 mi NNW 18.4 mph 24.2 mph N/A   Overcast
6:15 PM 20.8 °F 6.8 °F 3.2 °F 47% 30.55 in 10.0 mi NNW 16.1 mph 25.3 mph N/A   Overcast
6:35 PM 20.8 °F 8.4 °F 5.9 °F 53% 30.55 in 7.0 mi NW 12.7 mph 24.2 mph N/A Snow Light Snow
6:55 PM 21.0 °F 6.6 °F 4.8 °F 50% 30.56 in 10.0 mi NNW 17.3 mph 23.0 mph N/A   Overcast
7:15 PM 20.8 °F 6.4 °F 5.7 °F 52% 30.56 in 10.0 mi NNW 17.3 mph 29.9 mph N/A Snow Light Snow
7:35 PM 20.8 °F 7.9 °F 4.8 °F 50% 30.57 in 10.0 mi NNW 13.8 mph 25.3 mph N/A   Overcast
7:55 PM 20.8 °F 5.9 °F 7.3 °F 56% 30.58 in 7.0 mi NNW 18.4 mph 31.1 mph N/A Snow Light Snow
8:15 PM 20.8 °F 5.9 °F 5.2 °F 51% 30.58 in 10.0 mi North 18.4 mph 24.2 mph N/A   Overcast
8:34 PM 20.8 °F 7.9 °F 4.8 °F 50% 30.58 in 10.0 mi NNW 13.8 mph 19.6 mph N/A   Overcast
8:55 PM 20.8 °F 7.9 °F 3.2 °F 47% 30.58 in 10.0 mi NNW 13.8 mph 24.2 mph N/A   Overcast
9:15 PM 20.8 °F 6.8 °F 5.0 °F 50% 30.58 in 10.0 mi NNW 16.1 mph 27.6 mph N/A   Overcast
9:34 PM 20.5 °F 6.4 °F 7.2 °F 56% 30.58 in 7.0 mi NNW 16.1 mph 26.5 mph N/A Snow Light Snow
9:55 PM 19.4 °F 4.5 °F 7.3 °F 60% 30.58 in 7.0 mi NNW 17.3 mph 23.0 mph N/A Snow Light Snow
10:15 PM 19.4 °F 6.6 °F 6.6 °F 58% 30.58 in 7.0 mi North 12.7 mph 24.2 mph N/A Snow Light Snow
10:35 PM 19.4 °F 5.5 °F 5.5 °F 55% 30.58 in 10.0 mi North 15.0 mph 21.9 mph N/A   Overcast
10:55 PM 19.4 °F 9.5 °F 5.7 °F 55% 30.57 in 10.0 mi NNW 8.1 mph - N/A   Overcast
11:15 PM 20.8 °F 9.0 °F 6.4 °F 54% 30.57 in 10.0 mi NW 11.5 mph 20.7 mph N/A   Overcast
11:35 PM 20.8 °F 8.4 °F 5.0 °F 50% 30.57 in 10.0 mi North 12.7 mph 21.9 mph N/A   Overcast
11:55 PM 20.8 °F 10.4 °F 6.8 °F 55% 30.57 in 10.0 mi North 9.2 mph 26.5 mph N/A   Overcast